Weather History for Sheridan, WY

Change the Weather History Date:

Friday, May 10, 2013

  Actual Average Record
Temperature  
Mean Temperature 55 °F 51 °F  
Max Temperature 74 °F 65 °F 88 °F (1961)
Min Temperature 36 °F 37 °F 19 °F (1927)
Degree Days  
Heating Degree Days 10 14  
Month to date heating degree days 156 157  
Since 1 July heating degree days 7248 7258  
Cooling Degree Days 0 0  
Month to date cooling degree days 0 0  
Year to date cooling degree days 0 0  
Growing Degree Days 6 (Base 50)    
Moisture  
Dew Point 36 °F    
Average Humidity 51    
Maximum Humidity 79    
Minimum Humidity 23    
Precipitation  
Precipitation T in 0.08 in 1.48 in (2005)
Month to date precipitation 0.15 0.76  
Year to date precipitation 4.44 4.44  
Sea Level Pressure  
Sea Level Pressure 30.20 in    
Wind  
Wind Speed 7 mph (North)    
Max Wind Speed 24 mph    
Max Gust Speed 44 mph    
Visibility 10 miles    
Events      
T = Trace of Precipitation, MM = Missing Value Source: NWS Daily Summary

Daily Weather History Graph

Daily Weather History Graph

Search for Another Location

Airport:

Trip Planner

Search our weather history database for the weather conditions in past years. The results will help you decide how hot, cold, wet, or windy it might be!

Date:

Astronomy

May. 10, 2013 Rise Set
Actual Time 5:45 AM MDT 8:24 PM MDT
Civil Twilight 5:11 AM MDT 8:57 PM MDT
Nautical Twilight 4:29 AM MDT 9:39 PM MDT
Astronomical Twilight 3:41 AM MDT 10:28 PM MDT
Moon 6:11 AM MDT (5/10) 9:17 PM MDT (5/10)
Length of Visible Light 15h 45m
Length of Day
14h 39m
New Moon, 1% of the Moon is Illuminated
May 10
New Moon
May 17
First Quarter
May 24
Full
May 31
Last Quarter
Jun 8
New

Hourly Weather History & Observations

Time (MDT) Temp. Windchill Dew Point Humidity Pressure Visibility Wind Dir Wind Speed Gust Speed Precip Events Conditions
12:53 AM 46.0 °F - 37.9 °F 73% 30.10 in 10.0 mi Calm Calm - N/A   Clear
1:53 AM 46.4 °F 45.2 °F 37.4 °F 71% 30.15 in 10.0 mi SSE 3.5 mph - N/A   Clear
2:53 AM 43.0 °F - 36.0 °F 76% 30.11 in 10.0 mi Calm Calm - N/A   Clear
3:53 AM 39.9 °F - 34.0 °F 79% 30.12 in 10.0 mi Calm Calm - N/A   Clear
4:53 AM 39.9 °F - 34.0 °F 79% 30.12 in 10.0 mi Calm Calm - N/A   Partly Cloudy
5:53 AM 42.8 °F - 35.6 °F 76% 30.15 in 10.0 mi Calm Calm - N/A   Mostly Cloudy
6:53 AM 46.9 °F - 39.0 °F 74% 30.11 in 10.0 mi SW 4.6 mph - N/A   Clear
7:53 AM 57.0 °F - 42.1 °F 57% 30.12 in 10.0 mi Calm Calm - N/A   Clear
8:53 AM 63.0 °F - 42.1 °F 46% 30.13 in 10.0 mi Calm Calm - N/A   Clear
9:53 AM 69.1 °F - 41.0 °F 36% 30.14 in 10.0 mi NNW 11.5 mph 17.3 mph N/A   Clear
10:53 AM 71.6 °F - 37.4 °F 29% 30.20 in 10.0 mi NW 13.8 mph 21.9 mph N/A   Clear
11:53 AM 73.0 °F - 33.1 °F 23% 30.15 in 10.0 mi North 12.7 mph 20.7 mph N/A   Partly Cloudy
12:53 PM 69.1 °F - 33.1 °F 26% 30.16 in 10.0 mi North 9.2 mph 19.6 mph N/A   Mostly Cloudy
1:53 PM 71.1 °F - 39.0 °F 31% 30.17 in 10.0 mi North 9.2 mph - 0.00 in   Mostly Cloudy
2:53 PM 70.0 °F - 37.0 °F 30% 30.18 in 10.0 mi NNE 12.7 mph 23.0 mph N/A   Mostly Cloudy
3:26 PM 69.8 °F - 33.8 °F 27% 30.22 in 10.0 mi NNW 16.1 mph - N/A   Mostly Cloudy
3:53 PM 69.1 °F - 37.9 °F 32% 30.21 in 10.0 mi NNW 18.4 mph 26.5 mph N/A   Overcast
4:53 PM 66.9 °F - 39.0 °F 36% 30.23 in 10.0 mi North 13.8 mph 20.7 mph N/A   Mostly Cloudy
5:53 PM 64.0 °F - 37.0 °F 37% 30.25 in 10.0 mi North 12.7 mph - N/A   Overcast
6:53 PM 61.0 °F - 35.1 °F 38% 30.27 in 10.0 mi North 11.5 mph - N/A   Scattered Clouds
7:53 PM 57.9 °F - 33.1 °F 39% 30.28 in 10.0 mi NNE 15.0 mph - N/A   Partly Cloudy
8:53 PM 51.1 °F - 30.9 °F 46% 30.31 in 10.0 mi North 8.1 mph - N/A   Clear
9:53 PM 46.0 °F 42.5 °F 32.0 °F 58% 30.35 in 10.0 mi NW 6.9 mph - N/A   Clear
10:53 PM 45.0 °F 41.2 °F 30.9 °F 58% 30.36 in 10.0 mi NW 6.9 mph - N/A   Clear
11:53 PM 39.9 °F - 30.0 °F 68% 30.37 in 10.0 mi Calm Calm - N/A   Clear